Location: Mascot Post Office (historical)
(40.2645°N, 99.5462°W)
Time: 02:43:19
(UTC+00:00)

Cosmos 405 Rocket - Pass Details

Date: 14 July 2020
Orbit: 489 x 554 km, 81.3° (Epoch: 14 August)

Event Time Altitude Azimuth Distance (km) Brightness Sun altitude
Exits shadow 08:48:03 21° 298° (WNW) 1,177 4.4 -21.8°
Drops below altitude 10° 08:50:34 10° 339° (NNW) 1,727 5.8 -21.5°
Sets 08:53:03 0° 355° (N) 2,606 7.1 -21.3°
